SL-16 DEB, 22612

Orbit data source: Space-Track

SL-16 DEB, 22612 is space debris in LEO originally from a launch on Fri, 26 Mar 1993 UTC launched from the Tyuratam Missile And Space Complex (TTMTR). Debris objects in space refer to the collection of defunct objects orbiting the Earth. Examples of debris include non-operational satellites, rocket bodies, and fragments generated from explosions, collisions, or faulty payload assembly.

Loading next visibility...
Identifier
22612, 1993-016W
Orbit
LEO
Country
Flag of CISCIS
Related business
Manufacturer
Unknown
Mission
Spacecraft
Bus & Motor
Unknown
Mass
Unknown
Launch date (UTC)
1993-03-26 (33 years ago)
Launch vehicle
Unknown
Launch site
Tyuratam Missile And Space Complex (TTMTR)
Object type
Payload
Rocket body
Debris
Shape & HBR
Unknown shape, 0.1 m
Radar Cross Section
Small (<0.1 m²)

Expand to show TLE details & history
Last TLE update: 1 day ago

TLE from 1 day ago
0 SL-16 DEB
1 22612U 93016W   26034.53924341  .00007843  00000-0  23699-2 0  9991
2 22612  70.9722 213.9126 0059381 106.0094 315.7187 14.41627341687839
Epoch: 2026-02-03T12:56Z
TLE epoch observation values (Epoch: 2026-02-03T12:56:30.630Z)
Latitude
56.09173°
Longitude
-83.2492°
Altitude
731.739 km
Speed
7.511 km/s
True Right ascension
16h 18m 23s
True Declination
55° 55' 54"
Sunlit
Object was in daylight at epoch
Visualization orbit readout
Latitude
Unknown
Longitude
Unknown
Altitude
Unknown
Speed
Unknown
Apparent Right ascension
Unknown
Apparent Declination
Unknown
Sunlit
N/A
Visualization observer readout
Local Sidereal Time
18:49:49
Azimuth
Unknown
Elevation
Unknown
Doppler factor
Unknown
Orbital elements
Apogee altitude
793.362 km
Perigee altitude
708.695 km
Semi-major axis
7,129.165 km
Eccentricity
0.00594
Inclination
70.9722°
RAAN
213.9126°
Arg. of periapsis
106.0094°
True anomaly
315.24109°
Mean anomaly
315.7187°
Eccentric anomaly
315.48015°
Mean motion
3.60566 °/min
Orbital period
99.84 mins
BSTAR
0.0023699
Loading maneuver chart data...
Computing Atmospheric mass density...
Loading historical data...
Loading historical data...
Loading historical data...
Loading historical data...
Loading historical data...
Loading historical data...
Loading historical data...

Documentation

Showing up to 5 results
|